Weather History for Valdosta, GA

Change the Weather History Date:

Wednesday, February 13, 2013

  Actual Average Record
Temperature  
Mean Temperature 64 °F -  
Max Temperature 78 °F 64 °F 78 °F (2013)
Min Temperature 50 °F 44 °F 23 °F (2012)
Degree Days  
Heating Degree Days 1    
Growing Degree Days 14 (Base 50)    
Moisture  
Dew Point 60 °F    
Average Humidity 79    
Maximum Humidity 96    
Minimum Humidity 41    
Precipitation  
Precipitation 0.01 in - - ()
Sea Level Pressure  
Sea Level Pressure 29.85 in    
Wind  
Wind Speed 14 mph (WSW)    
Max Wind Speed 22 mph    
Max Gust Speed 30 mph    
Visibility 10 miles    
Events Rain , Thunderstorm    
Averages and records for this station are not official NWS values.
T = Trace of Precipitation, MM = Missing Value Source: NWS Daily Summary

Daily Weather History Graph

Daily Weather History Graph

Search for Another Location

Airport:

Trip Planner

Search our weather history database for the weather conditions in past years. The results will help you decide how hot, cold, wet, or windy it might be!

Date:

Astronomy

Feb. 13, 2013 Rise Set
Actual Time 7:15 AM EST 6:19 PM EST
Civil Twilight 6:50 AM EST 6:43 PM EST
Nautical Twilight 6:22 AM EST 7:12 PM EST
Astronomical Twilight 5:53 AM EST 7:40 PM EST
Moon 9:02 AM EST (2/13) 10:00 PM EST (2/13)
Length of Visible Light 11h 53m
Length of Day
11h 03m
Waxing Crescent, 13% of the Moon is Illuminated
Feb 13
Waxing Crescent
Feb 17
First Quarter
Feb 25
Full
Mar 4
Last Quarter
Mar 11
New

Hourly Weather History & Observations

Time (EST) Temp. Dew Point Humidity Pressure Visibility Wind Dir Wind Speed Gust Speed Precip Events Conditions
12:20 AM 71.6 °F 69.8 °F 94% 29.81 in 10.0 mi SSW 17.3 mph 25.3 mph N/A Rain Light Rain
12:31 AM 71.6 °F 69.8 °F 94% 29.81 in 10.0 mi SSW 16.1 mph 25.3 mph N/A   Overcast
12:35 AM 71.6 °F 69.8 °F 94% 29.81 in 10.0 mi South 17.3 mph 25.3 mph N/A   Overcast
12:58 AM 71.8 °F 69.1 °F 91% 29.82 in 10.0 mi SSW 15.0 mph 25.3 mph 0.00 in   Overcast
1:04 AM 71.6 °F 69.8 °F 94% 29.81 in 10.0 mi SSW 17.3 mph 25.3 mph N/A   Overcast
1:14 AM 71.6 °F 68.0 °F 88% 29.80 in 10.0 mi SSW 15.0 mph 24.2 mph N/A   Overcast
1:58 AM 71.8 °F 68.5 °F 89% 29.80 in 10.0 mi SSW 13.8 mph - N/A   Overcast
2:58 AM 72.0 °F 68.4 °F 88% 29.78 in 10.0 mi SSW 16.1 mph 23.0 mph N/A   Overcast
3:30 AM 71.6 °F 68.0 °F 88% 29.77 in 10.0 mi SSW 18.4 mph 25.3 mph N/A Rain Light Rain
3:35 AM 71.6 °F 68.0 °F 88% 29.77 in 10.0 mi SSW 18.4 mph 25.3 mph N/A Rain , Thunderstorm Light Thunderstorms and Rain
3:49 AM 71.6 °F 68.0 °F 88% 29.76 in 10.0 mi SSW 21.9 mph 29.9 mph N/A Thunderstorm Thunderstorm
3:50 AM 71.6 °F 68.0 °F 88% 29.77 in 10.0 mi SSW 20.7 mph 29.9 mph N/A   Overcast
3:58 AM 71.8 °F 68.0 °F 88% 29.78 in 10.0 mi SSW 20.7 mph 29.9 mph 0.00 in   Mostly Cloudy
4:13 AM 71.6 °F 68.0 °F 88% 29.78 in 10.0 mi SSW 20.7 mph 27.6 mph N/A Rain Light Rain
4:27 AM 71.6 °F 69.8 °F 94% 29.77 in 10.0 mi SSW 13.8 mph - N/A   Mostly Cloudy
4:58 AM 71.2 °F 68.5 °F 91% 29.77 in 10.0 mi SSW 18.4 mph 25.3 mph 0.00 in   Overcast
4:59 AM 71.6 °F 68.0 °F 88% 29.77 in 10.0 mi SSW 17.3 mph 25.3 mph N/A Rain Light Rain
5:27 AM 71.6 °F 69.8 °F 94% 29.78 in 9.0 mi SW 16.1 mph 26.5 mph N/A Rain Light Rain
5:29 AM 71.6 °F 69.8 °F 94% 29.77 in 10.0 mi SSW 15.0 mph 26.5 mph N/A Rain Light Rain
5:45 AM 71.6 °F 69.8 °F 94% 29.78 in 10.0 mi SSW 13.8 mph - N/A   Overcast
6:53 AM 71.6 °F 69.8 °F 94% 29.80 in 10.0 mi SSW 13.8 mph 19.6 mph N/A Rain Light Rain
7:35 AM 71.6 °F 69.8 °F 94% 29.81 in 8.0 mi SW 9.2 mph - N/A   Overcast
7:37 AM 71.6 °F 69.8 °F 94% 29.81 in 8.0 mi SW 9.2 mph - N/A Rain Light Rain
7:39 AM 71.6 °F 69.8 °F 94% 29.82 in 8.0 mi SW 9.2 mph - N/A   Overcast
7:49 AM 71.6 °F 69.8 °F 94% 29.82 in 9.0 mi WSW 9.2 mph - N/A Rain Light Rain
7:55 AM 71.1 °F 70.0 °F 96% 29.83 in 10.0 mi SW 6.9 mph - 0.00 in Rain Light Rain
7:58 AM 71.1 °F 70.0 °F 96% 29.83 in 9.0 mi SW 8.1 mph - 0.00 in Rain Light Rain
8:00 AM 71.6 °F 69.8 °F 94% 29.82 in 9.0 mi SW 12.7 mph - N/A   Mostly Cloudy
8:10 AM 71.6 °F 69.8 °F 94% 29.83 in 8.0 mi SW 9.2 mph 18.4 mph N/A   Mostly Cloudy
8:12 AM 71.6 °F 69.8 °F 94% 29.83 in 8.0 mi SW 11.5 mph 18.4 mph N/A   Mostly Cloudy
8:55 AM 73.0 °F 68.9 °F 87% 29.84 in 10.0 mi SW 12.7 mph - 0.01 in   Mostly Cloudy
8:58 AM 73.0 °F 68.9 °F 87% 29.84 in 10.0 mi SW 15.0 mph 25.3 mph 0.01 in   Mostly Cloudy
9:42 AM 73.4 °F 68.0 °F 83% 29.85 in 10.0 mi West 10.4 mph - N/A   Mostly Cloudy
9:55 AM 73.4 °F 68.0 °F 83% 29.85 in 10.0 mi WSW 10.4 mph 17.3 mph N/A   Mostly Cloudy
9:58 AM 72.9 °F 67.6 °F 84% 29.86 in 10.0 mi WSW 9.2 mph 17.3 mph N/A   Mostly Cloudy
10:12 AM 75.2 °F 68.0 °F 78% 29.86 in 10.0 mi West 11.5 mph - N/A   Scattered Clouds
10:55 AM 75.9 °F 62.6 °F 63% 29.85 in 10.0 mi WSW 15.0 mph - N/A   Partly Cloudy
10:58 AM 75.9 °F 62.6 °F 63% 29.86 in 10.0 mi WSW 11.5 mph - N/A   Partly Cloudy
11:53 AM 78.8 °F 57.2 °F 47% 29.84 in 10.0 mi WNW 16.1 mph 23.0 mph N/A   Scattered Clouds
11:55 AM 78.3 °F 56.7 °F 47% 29.84 in 10.0 mi WNW 13.8 mph 23.0 mph N/A   Partly Cloudy
11:58 AM 78.3 °F 56.7 °F 47% 29.84 in 10.0 mi WNW 15.0 mph 23.0 mph N/A   Scattered Clouds
12:34 PM 77.0 °F 62.6 °F 61% 29.84 in 10.0 mi NW 13.8 mph - N/A   Scattered Clouds
12:55 PM 73.9 °F 60.6 °F 63% 29.83 in 10.0 mi WNW 9.2 mph - N/A   Scattered Clouds
12:58 PM 73.9 °F 60.6 °F 63% 29.83 in 10.0 mi WNW 8.1 mph - N/A   Scattered Clouds
1:55 PM 73.8 °F 55.4 °F 53% 29.79 in 10.0 mi West 6.9 mph - N/A   Mostly Cloudy
1:58 PM 73.8 °F 55.4 °F 53% 29.81 in 10.0 mi WNW 8.1 mph - N/A   Mostly Cloudy
2:00 PM 73.8 °F 55.4 °F 53% 29.79 in 10.0 mi West 6.9 mph - N/A   Mostly Cloudy
2:58 PM 71.6 °F 47.3 °F 42% 29.83 in 10.0 mi West 9.2 mph - N/A   Overcast
3:00 PM 71.6 °F 47.3 °F 42% 29.83 in 10.0 mi West 13.8 mph - N/A   Overcast
3:58 PM 70.0 °F 46.8 °F 43% 29.86 in 10.0 mi West 6.9 mph - N/A   Overcast
4:58 PM 68.0 °F 43.3 °F 41% 29.88 in 10.0 mi West 8.1 mph - N/A   Overcast
5:50 PM 66.2 °F 44.6 °F 46% 29.87 in 10.0 mi WNW 16.1 mph 26.5 mph N/A Rain Light Rain
5:56 PM 66.2 °F 46.4 °F 49% 29.88 in 10.0 mi West 9.2 mph 21.9 mph N/A Rain Light Rain
5:58 PM 66.2 °F 46.4 °F 49% 29.88 in 10.0 mi West 8.1 mph 21.9 mph N/A   Overcast
6:58 PM 64.4 °F 45.9 °F 51% 29.88 in 10.0 mi West 9.2 mph - 0.00 in   Overcast
7:58 PM 63.0 °F 46.8 °F 55% 29.91 in 10.0 mi NW 6.9 mph - N/A   Overcast
8:39 PM 59.0 °F 50.0 °F 72% 29.93 in 10.0 mi WNW 17.3 mph 25.3 mph N/A Rain Light Rain
8:58 PM 55.2 °F 50.5 °F 84% 29.95 in 10.0 mi WNW 11.5 mph - 0.00 in Rain Light Rain
9:02 PM 55.4 °F 51.8 °F 88% 29.95 in 10.0 mi WNW 10.4 mph 19.6 mph N/A Rain Light Rain
9:27 PM 53.6 °F 51.8 °F 94% 29.94 in 10.0 mi WNW 11.5 mph - N/A   Overcast
9:31 PM 53.6 °F 51.8 °F 94% 29.95 in 10.0 mi WNW 11.5 mph - N/A Rain Light Rain
9:42 PM 53.6 °F 50.0 °F 88% 29.95 in 10.0 mi NW 15.0 mph - N/A   Overcast
9:44 PM 51.8 °F 50.0 °F 94% 29.95 in 10.0 mi WNW 17.3 mph - N/A   Overcast
9:46 PM 51.8 °F 48.2 °F 88% 29.96 in 10.0 mi WNW 17.3 mph - N/A   Overcast
9:58 PM 51.4 °F 46.0 °F 82% 29.97 in 10.0 mi NW 11.5 mph - 0.00 in   Overcast
10:20 PM 50.0 °F 46.4 °F 87% 29.97 in 10.0 mi NW 11.5 mph - N/A   Overcast
10:28 PM 50.0 °F 46.4 °F 87% 29.97 in 10.0 mi WNW 5.8 mph - N/A Rain Light Rain
10:53 PM 50.0 °F 46.4 °F 87% 29.98 in 10.0 mi WNW 8.1 mph - N/A   Overcast
10:56 PM 50.0 °F 46.4 °F 87% 29.98 in 10.0 mi WNW 6.9 mph - N/A   Light Drizzle
10:58 PM 50.2 °F 46.8 °F 88% 29.99 in 10.0 mi West 6.9 mph - 0.00 in   Light Drizzle
11:08 PM 50.0 °F 46.4 °F 87% 29.99 in 10.0 mi West 3.5 mph - N/A   Overcast
11:11 PM 50.0 °F 46.4 °F 87% 29.99 in 10.0 mi West 8.1 mph - N/A Rain Light Rain
11:24 PM 50.0 °F 46.4 °F 87% 29.98 in 10.0 mi WNW 3.5 mph - N/A   Overcast